Paso Robles, CA

10:22 PM PST on December 05, 2019 (GMT -0800)
Paso Robles Municipal

Weather History for KPRB - October, 2019

Change the Weather History Date:

Tuesday, October 8, 2019

  Actual Average Record
Temperature  
Mean Temperature 69 °F 64 °F  
Max Temperature 93 °F 82 °F 105 °F (1996)
Min Temperature 44 °F 46 °F 35 °F (1975)
Degree Days  
Heating Degree Days 0 3  
Month to date heating degree days 30 20  
Since 1 July heating degree days 56 52  
Cooling Degree Days 4 2  
Month to date cooling degree days 11 20  
Year to date cooling degree days 1046 911  
Growing Degree Days 19 (Base 50)    
Moisture  
Dew Point 35 °F    
Average Humidity 37    
Maximum Humidity 61    
Minimum Humidity 12    
Precipitation  
Precipitation 0.00 in 0.01 in 0.00 in (2019)
Month to date precipitation 0.00 0.10  
Year to date precipitation 11.28 9.22  
Sea Level Pressure  
Sea Level Pressure 29.86 in    
Wind  
Wind Speed 2 mph ()    
Max Wind Speed 15 mph    
Max Gust Speed 20 mph    
Visibility 10.0 miles    
Events      
T = Trace of Precipitation, MM = Missing Value Source: Averaged Metar Reports

Daily Weather History Graph

Daily Weather History Graph

Search for Another Location

Airport or City:

Astronomy

Oct. 08, 2019 Rise Set
Actual Time 7:03 AM PDT 6:36 PM PDT
Civil Twilight 6:37 AM PDT 7:02 PM PDT
Nautical Twilight 6:07 AM PDT 7:31 PM PDT
Astronomical Twilight 5:38 AM PDT 8:01 PM PDT
Moon 4:26 PM PDT (10/8) 2:10 AM PDT (10/8)
Length of Visible Light 12h 24m
Length of Day
11h 33m
Waxing Gibbous, 78% of the Moon is Illuminated
Oct 8
Waxing Gibbous
Oct 13
Full
Oct 21
Last Quarter
Oct 27
New
Nov 4
First Quarter

Hourly Weather History & Observations

Time (PDT) Temp. Dew Point Humidity Pressure Visibility Wind Dir Wind Speed Gust Speed Precip Events Conditions
12:53 AM 52.0 °F 34.0 °F 50% 29.91 in 10.0 mi Calm Calm - N/A   Clear
1:53 AM 52.0 °F 36.0 °F 54% 29.91 in 10.0 mi Calm Calm - N/A   Clear
2:53 AM 48.9 °F 34.0 °F 56% 29.90 in 10.0 mi SSE 3.5 mph - N/A   Clear
3:53 AM 48.0 °F 32.0 °F 54% 29.89 in 10.0 mi Calm Calm - N/A   Clear
4:53 AM 46.9 °F 33.1 °F 59% 29.89 in 10.0 mi Calm Calm - N/A   Clear
5:53 AM 46.0 °F 33.1 °F 61% 29.90 in 10.0 mi Calm Calm - N/A   Clear
6:53 AM 46.0 °F 33.1 °F 61% 29.91 in 10.0 mi Calm Calm - N/A   Clear
7:53 AM 46.0 °F 33.1 °F 61% 29.91 in 10.0 mi Calm Calm - N/A   Clear
8:53 AM 54.0 °F 35.1 °F 49% 29.92 in 10.0 mi Calm Calm - N/A   Clear
9:53 AM 62.1 °F 34.0 °F 35% 29.91 in 10.0 mi Calm Calm - N/A   Clear
10:53 AM 70.0 °F 35.1 °F 28% 29.90 in 10.0 mi WNW 4.6 mph - N/A   Clear
11:53 AM 78.1 °F 37.0 °F 23% 29.88 in 10.0 mi Calm Calm - N/A   Clear
12:53 PM 84.9 °F 36.0 °F 17% 29.85 in 10.0 mi South 3.5 mph - N/A   Clear
1:53 PM 90.0 °F 33.1 °F 13% 29.82 in 10.0 mi Calm Calm - N/A   Clear
2:53 PM 91.9 °F 32.0 °F 12% 29.80 in 10.0 mi Calm Calm - N/A   Clear
3:53 PM 91.9 °F 36.0 °F 14% 29.79 in 10.0 mi SSW 11.5 mph - N/A   Clear
4:53 PM 89.1 °F 35.1 °F 15% 29.79 in 10.0 mi SW 13.8 mph - N/A   Clear
5:53 PM 84.9 °F 37.9 °F 19% 29.79 in 10.0 mi SSW 8.1 mph - N/A   Clear
6:53 PM 79.0 °F 35.1 °F 20% 29.80 in 10.0 mi NW 3.5 mph - N/A   Clear
7:53 PM 75.0 °F 28.0 °F 18% 29.82 in 10.0 mi NW 12.7 mph - N/A   Partly Cloudy
8:53 PM 71.1 °F 35.1 °F 27% 29.82 in 10.0 mi WNW 9.2 mph - N/A   Clear
9:53 PM 66.0 °F 37.9 °F 36% 29.83 in 10.0 mi Calm Calm - N/A   Clear
10:53 PM 62.1 °F 43.0 °F 50% 29.84 in 10.0 mi West 5.8 mph - N/A   Clear
11:53 PM 60.1 °F 45.0 °F 57% 29.84 in 10.0 mi Calm Calm - N/A   Clear